Wind_Speed
2 2 1 2 2 2 2 2 2 2 2 1 1 1 1 2 2 2 3 3 3 3 3 3 4 5 4 4 4 4 4 4 4 4 4 5 5 5 6 6 6 6 5
2 1 1 1 2 2 3 3 3 3 2 2 2 2 2 3 3 3 4 4 4 4 4 5 6 6 6 5 5 5 5 5 5 6 6 6 6 6 6 6 7 7 7
1 1 1 1 2 3 3 3 3 4 3 3 3 3 3 4 4 4 5 5 4 4 5 5 5 5 6 6 6 6 6 7 7 7 7 7 7 7 7 7 7 8 8
0 1 1 1 1 3 3 3 3 3 3 4 4 4 5 5 5 5 5 6 6 6 6 5 5 6 6 6 7 7 7 7 7 7 8 7 7 7 8 8 9 9 9
1 1 1 1 1 2 3 3 3 3 4 4 4 5 5 5 5 5 5 5 5 5 6 6 6 7 7 7 7 8 8 8 8 9 9 8 8 8 8 8 8 8 9
1 1 1 1 2 2 3 3 4 5 5 5 5 5 5 5 5 6 5 5 5 5 6 6 7 8 8 9 9 9 9 9 9 9 9 9 9 9 8 9 9 9 9
2 2 3 3 3 3 3 4 5 5 6 6 7 7 6 6 7 7 6 6 6 6 7 8 9 8 9 9 10 10 10 10 9 10 10 10 10 10 10 10 10 10 11
3 3 3 3 3 3 3 4 5 6 6 7 7 7 7 8 8 8 8 7 7 8 8 9 10 9 10 10 10 11 11 10 11 11 11 11 11 11 11 12 12 12 13
4 3 3 3 4 4 4 4 5 5 6 7 7 8 8 8 8 9 8 9 9 9 9 10 11 11 11 11 11 11 11 11 11 11 12 12 12 12 13 13 13 14 14
5 4 4 5 5 5 6 6 6 7 8 8 8 8 9 9 9 9 9 10 10 11 11 11 12 12 12 12 12 12 12 12 12 13 14 14 14 14 14 14 13 14 14
6 6 5 6 7 7 8 8 8 8 9 9 9 9 10 10 10 11 11 11 12 12 12 13 13 13 13 13 13 13 13 14 14 14 15 15 15 15 15 15 15 16 16
8 8 8 8 9 9 9 9 10 10 9 10 10 10 11 11 12 12 12 13 13 13 14 15 15 15 14 14 14 14 15 15 15 15 15 15 15 16 16 16 16 16 16
9 9 10 10 10 10 10 10 10 10 10 11 11 12 13 13 13 14 14 14 14 15 16 16 16 16 16 16 15 15 15 17 17 16 16 16 16 16 16 16 16 16 16
11 11 11 11 11 11 11 11 11 11 11 12 13 13 14 14 15 15 16 16 17 16 17 18 18 18 18 17 16 16 16 16 16 17 17 16 16 16 16 17 17 17 17
13 13 13 13 13 12 12 12 12 12 12 13 13 14 15 16 16 17 17 18 18 18 18 19 19 19 19 18 17 17 17 17 17 17 17 17 17 17 17 18 19 18 18
14 15 15 15 15 15 14 14 14 13 13 14 15 15 16 16 16 17 17 17 18 17 17 18 18 19 18 18 18 18 18 19 18 18 18 18 19 19 20 19 19 20 19
16 16 17 16 16 17 16 16 15 16 16 16 16 17 17 16 17 17 18 17 18 18 17 17 18 18 18 19 18 18 18 19 19 19 20 20 20 19 20 20 20 21 21
17 17 18 18 18 18 18 17 17 17 17 17 17 17 18 18 18 18 18 18 19 19 19 19 19 20 20 20 21 20 20 20 21 21 20 20 20 20 21 21 22 22 22
19 19 19 19 19 19 20 20 19 19 19 19 19 19 19 20 19 19 19 19 20 20 20 20 20 21 21 21 21 22 22 22 22 22 22 22 22 23 23 23 23 22 22
19 20 20 20 20 20 21 21 21 21 21 21 21 21 21 20 20 20 20 20 20 20 21 21 21 22 22 22 22 22 23 23 23 24 24 24 25 25 24 24 24 24 24
20 21 21 21 21 22 22 22 22 23 23 23 23 23 23 22 22 21 21 21 22 22 22 22 21 22 23 23 23 24 25 25 25 25 25 25 26 26 26 25 25 25 25
21 22 22 22 23 23 23 23 23 24 24 24 25 24 24 24 23 22 22 22 24 24 23 23 22 22 23 24 25 26 27 26 26 27 27 27 27 27 26 27 27 26 26
22 22 23 23 23 24 24 24 24 24 25 26 25 24 24 24 24 24 24 24 24 24 25 25 25 24 25 26 26 26 27 27 27 28 28 28 28 27 27 27 27 27 27
23 23 23 23 24 24 25 25 25 25 25 25 25 25 25 24 25 25 25 25 26 26 26 26 26 27 27 27 27 27 27 27 28 29 29 28 29 28 28 27 28 28 28
24 24 24 25 25 25 26 26 26 26 26 26 27 26 26 26 26 27 27 27 27 28 28 28 28 28 28 28 28 28 29 29 29 30 30 29 28 28 27 27 27 27 27
25 25 25 25 25 25 26 26 27 27 28 28 28 28 28 28 28 29 29 29 28 28 29 29 29 29 29 28 28 29 30 30 30 29 29 29 28 28 27 26 27 27 27
Wind_Direction
117 110 124 154 167 181 199 208 199 190 194 214 217 216 286 316 300 252 229 238 259 278 284 291 299 305 303 301 305 316 317 312 307 300 292 285 276 273 276 278 266 264 264
136 145 178 182 181 196 213 221 216 213 217 225 232 254 288 285 275 254 250 253 267 281 281 287 294 292 293 292 293 293 295 296 295 292 289 283 274 271 273 279 269 263 262
153 181 208 210 212 217 219 225 226 233 245 246 247 259 271 266 265 263 260 266 271 272 282 292 297 303 297 290 286 292 289 286 288 289 285 274 271 271 274 271 270 264 262
256 249 259 264 245 238 227 228 236 241 242 252 259 268 269 262 259 268 267 269 272 282 288 293 296 302 302 292 289 292 289 288 289 288 282 278 278 279 276 273 269 268 262
285 278 270 286 261 243 239 236 239 243 246 256 266 272 272 268 263 271 277 274 279 286 284 284 288 297 297 293 290 289 289 283 287 287 284 284 283 282 279 277 275 274 272
360 307 292 299 286 274 256 256 255 251 255 260 262 271 270 264 268 279 280 278 281 282 285 284 288 295 297 294 290 288 286 283 282 281 280 282 282 284 279 275 274 273 276
343 300 274 276 277 281 278 268 264 263 265 266 267 271 269 271 273 276 275 275 279 283 286 286 285 290 291 292 293 292 285 280 278 277 277 277 278 279 277 275 276 274 276
328 310 280 272 277 279 281 284 273 264 267 269 271 268 266 274 276 272 272 278 281 282 284 286 289 289 292 291 291 292 283 281 277 277 278 277 279 277 274 274 274 276 278
310 313 296 294 296 294 287 291 287 279 272 273 273 270 268 272 271 274 274 276 279 277 279 284 286 287 289 288 292 291 287 284 282 278 279 279 278 277 275 274 275 275 277
305 298 284 286 291 286 287 287 287 281 280 278 276 273 272 271 274 274 273 278 277 278 282 288 287 285 290 289 287 287 285 284 281 279 279 278 276 276 273 274 273 274 274
294 292 286 284 286 285 288 287 287 288 284 280 279 278 277 272 276 276 275 275 277 279 281 283 286 287 287 289 287 285 283 282 279 276 277 277 276 273 274 275 274 275 275
287 288 286 284 283 282 284 287 289 292 287 281 279 279 279 277 275 274 275 277 276 277 280 282 284 285 285 285 283 283 280 277 274 273 275 275 272 272 275 277 279 278 277
284 285 281 281 282 282 284 286 289 289 286 281 283 282 280 279 277 275 275 276 276 277 279 282 284 283 284 283 281 281 279 277 274 273 275 275 273 275 276 279 279 277 277
281 283 282 283 283 285 285 284 285 285 284 284 286 286 284 280 278 278 276 276 277 278 280 280 282 282 283 283 282 281 281 283 280 280 280 278 278 278 277 277 278 277 277
277 279 281 282 281 281 282 283 284 284 285 286 286 285 283 281 279 279 280 280 279 279 280 279 280 281 282 281 281 280 281 282 282 283 283 283 282 279 278 278 277 277 276
276 276 277 279 279 279 279 281 281 284 287 286 287 286 286 283 282 283 284 284 284 283 283 283 281 279 277 279 279 281 280 282 282 282 282 283 280 281 279 279 280 277 276
274 275 275 276 277 277 277 277 279 281 284 284 285 285 284 285 287 286 286 285 284 283 281 283 283 281 282 281 281 281 281 282 279 279 280 280 281 281 282 282 281 280 279
274 274 275 275 275 276 276 277 278 278 279 281 283 283 282 282 286 287 287 286 284 283 282 282 282 281 284 283 281 279 281 283 281 279 280 281 281 282 282 281 281 281 280
275 274 275 275 273 274 275 277 279 278 276 277 279 281 281 281 283 286 285 284 283 283 283 282 283 281 283 283 283 280 280 281 281 280 279 280 280 281 281 282 282 282 282
274 274 275 274 274 275 277 278 279 279 279 278 278 279 279 281 282 282 281 282 283 284 285 284 284 283 283 283 284 281 281 280 281 279 278 277 278 279 279 281 283 282 281
277 275 275 276 276 277 279 280 282 281 281 279 279 278 277 279 279 280 282 282 283 285 285 285 284 283 282 282 283 282 282 280 281 282 280 279 279 279 279 280 281 281 281
278 276 275 275 276 278 280 280 281 281 280 281 280 280 278 278 278 280 283 285 285 284 283 283 285 284 284 284 284 283 282 280 280 281 280 279 280 280 280 279 279 279 280
279 277 277 276 277 279 280 280 280 282 281 281 279 278 277 277 279 280 282 285 287 286 284 285 286 285 284 283 284 283 283 280 280 280 279 279 279 279 279 277 277 278 279
280 277 277 277 278 279 280 281 281 281 281 280 279 278 278 279 279 280 281 282 284 285 287 287 285 284 283 283 283 283 281 280 280 280 279 279 279 279 278 277 278 277 278
280 279 278 277 278 280 280 280 280 281 282 282 281 280 279 279 280 280 280 281 282 283 286 286 285 283 282 282 282 281 281 280 280 279 279 278 278 281 279 276 276 277 277
279 278 278 279 279 279 280 280 281 281 281 281 281 281 279 279 280 280 280 280 281 283 285 286 286 284 283 282 281 281 281 280 280 279 277 277 277 279 279 278 277 277 276
Height
5899 5899 5899 5899 5899 5899 5900 5900 5900 5900 5900 5900 5900 5900 5900 5899 5899 5898 5898 5898 5898 5898 5897 5897 5896 5895 5895 5894 5893 5893 5892 5891 5890 5889 5888 5888 5887 5887 5886 5886 5885 5885 5885
5899 5899 5899 5898 5898 5899 5899 5899 5899 5899 5899 5899 5899 5899 5899 5898 5898 5897 5897 5897 5897 5896 5896 5896 5895 5894 5893 5893 5892 5891 5890 5889 5888 5887 5887 5886 5885 5885 5885 5884 5884 5883 5883
5898 5898 5898 5898 5898 5898 5898 5898 5898 5898 5898 5898 5898 5898 5898 5897 5897 5896 5896 5896 5895 5895 5895 5894 5893 5892 5892 5891 5890 5889 5888 5887 5886 5885 5885 5884 5883 5883 5883 5882 5882 5881 5881
5898 5898 5898 5897 5897 5897 5897 5897 5897 5897 5897 5897 5897 5897 5896 5896 5895 5895 5895 5894 5894 5894 5893 5892 5891 5891 5890 5889 5888 5887 5886 5885 5884 5883 5882 5882 5881 5881 5880 5880 5879 5879 5879
5898 5897 5897 5897 5896 5896 5896 5896 5896 5896 5896 5896 5895 5895 5895 5894 5894 5894 5893 5892 5892 5892 5892 5891 5890 5889 5888 5887 5886 5885 5884 5883 5882 5881 5880 5880 5879 5878 5878 5878 5877 5877 5876
5897 5897 5896 5896 5895 5895 5895 5895 5895 5894 5894 5894 5894 5894 5893 5893 5893 5892 5892 5891 5891 5890 5890 5889 5888 5887 5886 5885 5884 5883 5882 5881 5880 5879 5878 5877 5877 5876 5876 5875 5875 5874 5874
5896 5896 5895 5895 5894 5894 5894 5893 5893 5893 5893 5893 5892 5892 5892 5891 5891 5891 5890 5890 5889 5889 5888 5887 5886 5885 5884 5883 5882 5880 5879 5878 5877 5876 5876 5875 5875 5874 5873 5873 5872 5872 5871
5895 5894 5894 5893 5893 5893 5893 5892 5892 5891 5891 5891 5890 5890 5890 5890 5889 5889 5888 5888 5887 5887 5886 5885 5884 5883 5882 5881 5880 5878 5876 5875 5875 5874 5873 5873 5872 5871 5870 5870 5869 5869 5868
5894 5893 5893 5892 5892 5892 5891 5891 5890 5890 5889 5888 5888 5888 5888 5888 5887 5887 5886 5886 5885 5884 5884 5883 5881 5880 5879 5878 5877 5876 5874 5873 5872 5871 5871 5870 5869 5868 5867 5866 5866 5865 5865
5893 5892 5891 5891 5890 5890 5890 5889 5888 5888 5887 5886 5886 5886 5886 5885 5885 5885 5884 5883 5883 5882 5881 5880 5879 5877 5876 5875 5874 5873 5872 5871 5869 5868 5867 5866 5865 5865 5864 5863 5862 5862 5861
5891 5890 5889 5889 5889 5888 5887 5887 5886 5885 5885 5884 5883 5883 5882 5882 5882 5882 5881 5881 5880 5879 5878 5877 5875 5874 5873 5872 5871 5869 5868 5867 5866 5864 5864 5862 5861 5861 5860 5859 5858 5858 5857
5888 5888 5887 5887 5886 5885 5885 5884 5883 5883 5882 5881 5880 5880 5879 5879 5878 5878 5878 5877 5876 5875 5874 5873 5871 5870 5869 5868 5867 5866 5864 5863 5862 5861 5860 5859 5858 5857 5856 5855 5855 5854 5853
5886 5885 5884 5884 5883 5882 5882 5881 5881 5880 5879 5878 5877 5877 5876 5875 5874 5874 5873 5873 5872 5871 5870 5868 5867 5866 5865 5864 5863 5862 5860 5859 5858 5857 5856 5855 5854 5853 5852 5851 5850 5849 5848
5883 5882 5881 5880 5879 5879 5879 5878 5877 5876 5875 5875 5874 5873 5872 5871 5870 5869 5869 5868 5867 5867 5865 5864 5862 5861 5860 5859 5858 5857 5856 5854 5853 5851 5851 5850 5849 5848 5848 5847 5846 5845 5844
5879 5878 5878 5877 5876 5875 5875 5874 5873 5872 5872 5871 5870 5869 5868 5867 5865 5864 5863 5863 5862 5861 5861 5859 5857 5856 5855 5854 5853 5852 5851 5850 5848 5847 5846 5845 5844 5844 5843 5842 5841 5840 5839
5875 5874 5873 5873 5872 5871 5871 5870 5869 5868 5867 5866 5865 5864 5863 5862 5861 5860 5858 5857 5856 5856 5855 5853 5852 5850 5849 5848 5847 5847 5846 5845 5844 5843 5841 5840 5840 5839 5838 5837 5836 5834 5833
5870 5869 5869 5868 5867 5867 5866 5865 5865 5864 5863 5862 5861 5859 5858 5857 5856 5855 5853 5852 5851 5850 5849 5848 5847 5845 5844 5843 5842 5841 5840 5839 5838 5837 5836 5835 5834 5833 5832 5831 5830 5829 5828
5865 5864 5863 5863 5862 5862 5861 5860 5859 5858 5857 5856 5855 5854 5853 5851 5851 5849 5848 5847 5846 5845 5844 5842 5841 5840 5838 5837 5836 5835 5834 5833 5832 5831 5830 5829 5828 5827 5826 5825 5824 5823 5821
5859 5858 5858 5857 5856 5856 5855 5854 5853 5852 5852 5851 5850 5848 5846 5845 5844 5843 5842 5841 5840 5839 5838 5836 5835 5834 5833 5831 5830 5829 5828 5827 5826 5825 5824 5823 5822 5821 5820 5819 5818 5816 5815
5852 5852 5851 5851 5850 5849 5849 5848 5847 5846 5845 5844 5843 5842 5841 5840 5838 5837 5836 5835 5833 5832 5831 5830 5828 5827 5826 5825 5823 5822 5821 5820 5819 5818 5817 5816 5815 5814 5813 5812 5811 5810 5808
5846 5845 5845 5844 5843 5843 5842 5841 5840 5839 5838 5837 5836 5835 5834 5833 5832 5830 5829 5828 5827 5826 5824 5823 5822 5820 5819 5818 5817 5815 5814 5812 5811 5810 5809 5808 5808 5807 5805 5804 5803 5802 5801
5839 5838 5838 5837 5837 5836 5835 5834 5833 5832 5831 5830 5829 5828 5827 5826 5825 5824 5823 5821 5820 5819 5817 5816 5815 5813 5812 5810 5809 5807 5806 5804 5804 5803 5801 5800 5799 5798 5797 5796 5795 5794 5793
5832 5831 5831 5830 5829 5829 5828 5827 5826 5825 5824 5822 5821 5820 5819 5818 5818 5817 5815 5814 5813 5811 5810 5809 5807 5806 5805 5803 5801 5800 5798 5797 5795 5794 5793 5792 5791 5790 5789 5787 5787 5786 5785
5825 5824 5823 5823 5822 5821 5820 5819 5818 5817 5816 5815 5814 5813 5812 5811 5810 5809 5808 5806 5805 5803 5802 5801 5799 5798 5796 5794 5793 5792 5790 5789 5787 5786 5784 5784 5783 5781 5780 5779 5778 5777 5777
5818 5817 5816 5815 5814 5814 5813 5812 5811 5809 5808 5807 5806 5805 5804 5803 5802 5801 5800 5798 5797 5796 5794 5792 5791 5789 5787 5786 5784 5783 5782 5780 5779 5777 5775 5775 5774 5773 5771 5770 5770 5769 5768
5810 5809 5808 5807 5806 5806 5805 5804 5803 5801 5800 5799 5798 5797 5796 5795 5793 5792 5791 5790 5789 5787 5785 5784 5782 5780 5778 5777 5775 5774 5773 5771 5770 5769 5767 5766 5765 5764 5764 5763 5761 5760 5759